Location: El Recuerdo
(3.6589°N, 75.6172°W)
Time: 21:07:27
(UTC+00:00)

Meteor 1-5 Rocket - Pass Details

Date: 16 March 2026
Orbit: 787 x 914 km, 81.2° (Epoch: 11 April)

Event Time Altitude Azimuth Distance (km) Brightness Sun altitude
Rises 00:16:56 0° 215° (SW) 3,539 8.0 -16.5°
Reaches altitude 10° 00:20:08 10° 232° (SW) 2,600 7.5 -17.3°
Maximum altitude 00:24:12 19° 276° (W) 2,018 7.2 -18.3°
Drops below altitude 10° 00:28:15 10° 319° (NW) 2,583 7.2 -19.3°
Sets 00:31:27 0° 337° (NNW) 3,509 7.7 -20.1°
